Madonna di Co, Italy 16 day weather forecast

Slopes altitude range 800 m - 2505m

Number of lifts: 60 Pistes: 150km

In some cases the lift and piste totals shown are for the ski domain (e.g. Three Valleys) rather than individual resort (e.g. Courchevel)

Overview

The 16 day weather forecast is fully updated 4 times every day.

    • Wed 26 JUN 2019
    • Wed 26
    • 19C 30C
    • Thu 27 JUN 2019
    • Thu 27
    • 21C 32C
    • Fri 28 JUN 2019
    • Fri 28
    • 20C 30C
    • Sat 29 JUN 2019
    • Sat 29
    • 17C 25C
    • Sun 30 JUN 2019
    • Sun 30
    • 18C 27C
    • Mon 01 JUL 2019
    • Mon 01
    • 18C 28C
    • Tue 02 JUL 2019
    • Tue 02
    • 17C 26C
    • Wed 03 JUL 2019
    • Wed 03
    • 16C 20C
    • Thu 04 JUL 2019
    • Thu 04
    • 12C 19C
    • Fri 05 JUL 2019
    • Fri 05
    • 14C 19C
    • Sat 06 JUL 2019
    • Sat 06
    • 8C 11C
    • Sun 07 JUL 2019
    • Sun 07
    • 8C 17C
    • Mon 08 JUL 2019
    • Mon 08
    • 14C 21C
    • Tue 09 JUL 2019
    • Tue 09
    • 15C 20C
    • Wed 10 JUL 2019
    • Wed 10
    • 14C 19C
    • Thu 11 JUL 2019
    • Thu 11
    • 14C 20C

Date:

Time Type 0°C level Temp Chill Snow Cloud Speed Gust Dir Press
3:00 4617m 15°C 15_3 0cm 39% 3mph 3mph 1025mB
6:00 4635m 15°C 15_1 0cm 34% 1mph 3mph 1025mB
9:00 4629m 19°C 19_4 0cm 0% 4mph 3mph 1025mB
12:00 4604m 30°C 30_5 0cm 0% 5mph 5mph 1024mB
15:00 4594m 30°C 30_6 0cm 0% 6mph 6mph 1023mB
18:00 4612m 30°C 30_2 0cm 1% 2mph 3mph 1024mB
21:00 4613m 18°C 18_3 0cm 3% 3mph 4mph 1025mB
0:00 4605m 17°C 17_4 0cm 3% 4mph 4mph 1026mB
3:00 4613m 16°C 16_4 0cm 0% 4mph 5mph 1024mB
6:00 4587m 16°C 16_3 0cm 0% 3mph 4mph 1023mB
9:00 4601m 21°C 21_2 0cm 0% 2mph 4mph 1022mB
12:00 4498m 32°C 32_4 0cm 0% 4mph 9mph 1020mB
15:00 4508m 33°C 33_6 0cm 2% 6mph 12mph 1019mB
18:00 4536m 33°C 33_5 0cm 20% 5mph 6mph 1019mB
21:00 4636m 19°C 19_7 0cm 0% 7mph 8mph 1020mB
0:00 4705m 17°C 17_7 0cm 1% 7mph 8mph 1020mB
3:00 4636m 15°C 15_6 0cm 0% 6mph 7mph 1020mB
6:00 4608m 15°C 15_4 0cm 0% 4mph 6mph 1019mB
9:00 4628m 20°C 20_2 0cm 0% 2mph 4mph 1018mB
12:00 4455m 30°C 30_3 0cm 0% 3mph 8mph 1017mB
15:00 4365m 30°C 30_4 0cm 31% 4mph 6mph 1017mB
18:00 4564m 30°C 30_1 0cm 52% 1mph 2mph 1018mB
21:00 4619m 16°C 16_5 0cm 4% 5mph 5mph 1020mB
0:00 4692m 14°C 14_3 0cm 2% 3mph 4mph 1021mB
3:00 4652m 14°C 14_1 0cm 59% 1mph 2mph 1020mB
6:00 4731m 14°C 14_2 0cm 77% 2mph 2mph 1020mB
9:00 4799m 17°C 17_4 0cm 47% 4mph 3mph 1019mB
12:00 4810m 25°C 25_6 0cm 24% 6mph 5mph 1018mB
15:00 4875m 26°C 26_7 0cm 2% 7mph 7mph 1018mB
18:00 4919m 26°C 26_4 0cm 3% 4mph 6mph 1019mB
21:00 4940m 15°C 15_0 0cm 14% 0mph 1mph 1021mB
0:00 4873m 14°C 14_1 0cm 21% 1mph 2mph 1021mB
3:00 4773m 14°C 14_0 0cm 64% 0mph 1mph 1020mB
6:00 4768m 14°C 14_1 0cm 78% 1mph 1mph 1020mB
9:00 4709m 18°C 18_4 0cm 44% 4mph 3mph 1020mB
12:00 4646m 27°C 27_5 0cm 24% 5mph 5mph 1019mB
15:00 4527m 28°C 28_6 0cm 67% 6mph 6mph 1018mB
18:00 4623m 28°C 28_3 0cm 35% 3mph 5mph 1020mB
21:00 4559m 16°C 16_3 0cm 23% 3mph 3mph 1022mB
0:00 4510m 15°C 15_2 0cm 28% 2mph 3mph 1021mB
3:00 4501m 14°C 14_3 0cm 0% 3mph 4mph 1020mB
6:00 4475m 14°C 14_1 0cm 0% 1mph 2mph 1019mB
9:00 4443m 18°C 18_4 0cm 0% 4mph 2mph 1018mB
12:00 4436m 28°C 28_6 0cm 0% 6mph 6mph 1017mB
15:00 4449m 28°C 28_6 0cm 7% 6mph 5mph 1016mB
18:00 4364m 28°C 28_4 0cm 53% 4mph 4mph 1019mB
21:00 4089m 14°C 14_7 0cm 99% 7mph 7mph 1020mB
0:00 4219m 13°C 13_3 0cm 99% 3mph 4mph 1019mB
3:00 4170m 12°C 12_3 0cm 100% 3mph 4mph 1018mB
6:00 4196m 12°C 12_2 0cm 93% 2mph 4mph 1017mB
9:00 4196m 17°C 17_4 0cm 75% 4mph 2mph 1017mB
12:00 4224m 26°C 26_5 0cm 69% 5mph 6mph 1016mB
15:00 4198m 26°C 26_4 0cm 98% 4mph 4mph 1016mB
18:00 4070m 26°C 26_3 0cm 96% 3mph 4mph 1017mB
21:00 4065m 14°C 14_2 0cm 100% 2mph 3mph 1018mB
0:00 4129m 13°C 13_3 0cm 99% 3mph 4mph 1018mB
3:00 3996m 12°C 12_3 0cm 95% 3mph 3mph 1018mB
6:00 3884m 12°C 12_1 0cm 96% 1mph 2mph 1018mB
9:00 3954m 16°C 16_3 0cm 99% 3mph 4mph 1018mB
12:00 4029m 20°C 20_2 0cm 100% 2mph 2mph 1018mB
15:00 3873m 13°C 13_4 0cm 100% 4mph 4mph 1019mB
18:00 4005m 14°C 14_4 0cm 100% 4mph 4mph 1019mB
21:00 4105m 7°C 7_3 0cm 98% 3mph 4mph 1020mB
0:00 4168m 6°C 6_2 0cm 98% 2mph 3mph 1019mB
3:00 4089m 5°C 5_2 0cm 100% 2mph 3mph 1018mB
6:00 3966m 5°C 5_3 0cm 74% 3mph 3mph 1018mB
9:00 3960m 12°C 12_4 0cm 23% 4mph 2mph 1017mB
12:00 3944m 19°C 19_3 0cm 45% 3mph 3mph 1016mB
15:00 4003m 19°C 19_2 0cm 84% 2mph 3mph 1016mB
18:00 4067m 19°C 19_1 0cm 88% 1mph 2mph 1017mB
21:00 4120m 9°C 9_1 0cm 89% 1mph 2mph 1018mB
0:00 4105m 8°C 8_2 0cm 94% 2mph 3mph 1018mB
3:00 4023m 6°C 6_1 0cm 54% 1mph 1mph 1018mB
6:00 3998m 6°C 6_1 0cm 31% 1mph 2mph 1017mB
9:00 4043m 14°C 14_1 0cm 16% 1mph 3mph 1017mB
12:00 4126m 19°C 19_3 0cm 36% 3mph 4mph 1016mB
15:00 4180m 20°C 20_1 0cm 70% 1mph 3mph 1015mB
18:00 4170m 20°C 20_2 0cm 71% 2mph 3mph 1017mB
21:00 4062m 11°C 11_3 0cm 100% 3mph 4mph 1019mB
0:00 4056m 9°C 9_5 0cm 100% 5mph 6mph 1019mB
Afternoon 0.791667mm 1.5625 3729m 11°C 11_10 0cm 87% 10mph 10mph 1018mB
Morning 0mm 0 3565m 3°C 3_7 0cm 49% 7mph 7mph 1025mB
Afternoon 0mm 0 3903m 17°C 17_3 0cm 0% 3mph 3mph 1020mB
Morning 0mm 0 4423m 5°C 5_2 0cm 21% 2mph 3mph 1021mB
Afternoon 0mm 0 4180m 21°C 21_3 0cm 57% 3mph 11mph 1017mB
Morning 0.125mm 0.375 4203m 9°C 9_0 0cm 100% 0mph 1mph 1019mB
Afternoon 0.3125mm 0.9375 4260m 20°C 20_5 0cm 90% 5mph 4mph 1016mB
Morning 0.125mm 0.375 4192m 9°C 9_2 0cm 100% 2mph 2mph 1018mB
Afternoon 0.916667mm 2.75 4098m 19°C 19_9 0cm 67% 9mph 7mph 1016mB
Morning 0mm 0 3950m 7°C 7_3 0cm 92% 3mph 3mph 1017mB
Afternoon 0.166667mm 0.5 4031m 20°C 20_1 0cm 16% 1mph 4mph 1012mB
Morning 0.0208333mm 0.0625 3943m 7°C 7_3 0cm 95% 3mph 3mph 1010mB

16 day outlook at a glance

Forecast issued: 6/26/2019 8:10:12 AM

Chat

Your comments and questions. In a resort? Let us know what it's like!


Characters left 250

For terms and conditions see Readers Comments on the Cookie and privacy policy page.